Other Surface Observations
Issued by NWS Tucson, AZ

Home | Current Version | Previous Version | Text Only | Print | Product List | Glossary On
Versions: 1 2 3 4 5 6 7 8 9 10 11 12 13 14 15 16 17 18 19 20 21 22 23 24 25 26 27 28 29 30 31 32 33 34 35 36 37 38 39 40 41 42 43 44 45 46 47 48 49 50
000
SXUS55 KTWC 250115
OSOTWC

WEATHER ROUNDUP FOR SOUTHEAST ARIZONA
NATIONAL WEATHER SERVICE TUCSON AZ
615 PM MST WED MAY 24 2017

AZZ504>506-514-250215-
LOCATION       SKY/WX    TMP DP  RH WIND       PRES   REMARKS
TUCSON         SUNNY    100  21   6 W15G26    29.71F
DAVIS-MONTHAN  SUNNY     99  22   6 W9G20     29.71F
CHILDRENS PARK N/A      N/A N/A   6 W8                PIMA CO DEQ
ALVERNON/22ND  N/A      101 N/A N/A W11               PIMA CO DEQ
CHERRY/GLENN   N/A      N/A N/A N/A N/A               PIMA CO DEQ
TANGERINE      N/A      101 N/A N/A W10               PIMA CO DEQ
CONTL RANCH    N/A      103  23   6 W10               PIMA CO DEQ
GRANT/1ST      N/A      101  22   6 W11               PIMA CO DEQ
CRAYCROFT/22ND N/A      101  22   6 W12               PIMA CO DEQ
GOLFLINKS/KOLB N/A      N/A N/A N/A N/A               PIMA CO DEQ
AJO/12TH       N/A      102  23   6 W10               PIMA CO DEQ
FAIRGROUNDS    N/A       99 N/A N/A NW17              PIMA CO DEQ
SAGUARO        N/A      101  18   5 W10G20            *SABINO CYN
SAN CARLOS     N/A       98  23   7 W14G19            *SAN CARLOS
GREEN VALLEY   N/A      101  22   6 SW11              PIMA CO DEQ
HORSE CAMP CYN N/A       93  20   7 SW17G28           *ARAVAIPA CYN
RINCON MTNS    NOT AVBL
$$

AZZ509>511-250215-
LOCATION       SKY/WX    TMP DP  RH WIND       PRES   REMARKS
SAFFORD        SUNNY     97  19   6 W23G32    29.69F
STRAY HORSE    N/A       73  13  10 N/A               *
TRAIL CABIN    N/A       83  18   9 NW10G19           *N OF GRANVILLE
BLACK HILLS    NOT AVBL
DRY LAKE       N/A       76  20  12 SW7G17            *NATANES MTNS
NOON CREEK     N/A       89  20   8 SW5G15            *PINALENO MTNS
COLUMBINE      N/A       66  17  15 SW9G16            *PINALENO MTNS
GUTHRIE        N/A       83  18   9 W17G30            *SW OF GUTHRIE
$$

AZZ502-503-513-250215-
LOCATION       SKY/WX    TMP DP  RH WIND       PRES   REMARKS
NOGALES        SUNNY     93  18   6 SW18G24   29.84S
SELLS          N/A       99  27   8 NE13G23           *
SASABE         N/A       98  20   6 SW11G22           *ALTAR VLY
HOPKINS        N/A       82  12   7 W10G20            *SANTA RITA MTNS
CARR CYN       N/A       87  19   8 NW3G10            *W OF HEREFORD
$$

AZZ507-508-512-250215-
LOCATION       SKY/WX    TMP DP  RH WIND       PRES   REMARKS
SIERRA VISTA   SUNNY     91  15   6 W16       29.89S
DOUGLAS        SUNNY     94  12   5 SW20G29   29.81F
EMPIRE MTNS    NOT AVBL
MULESHOE RANCH N/A       92  19   7 SW9G23            *PRESERVE
HEADQUARTERS   NOT AVBL
$$

.............................NOTES.............................
THIS IS AN AUTOMATED COLLECTIVE WITH MINIMAL QUALITY CONTROL.
PIMA CO DEQ SITES HAVE NONSTANDARD WIND SENSOR HEIGHTS.
PIMA CO DEQ SITES DO NOT REPORT WIND GUSTS.
* INDICATES WIND SENSORS LOCATED AT 20 FEET INSTEAD OF 33 FEET.
..............................KEY..............................
SKY/WX - SKY CONDITION/WEATHER
TMP    - TEMPERATURE IN FAHRENHEIT
DP     - DEWPOINT IN FAHRENHEIT
RH     - RELATIVE HUMIDITY IN PERCENT
WIND   - DIRECTION AND SPEED IN MILES PER HOUR (MPH)
VRB    - VARIABLE WIND DIRECTION
PRES   - MEAN SEA LEVEL PRESSURE IN INCHES OF MERCURY
         F - FALLING PRESSURE   R - RISING PRESSURE
         S - STEADY PRESSURE
VSB    - VISIBILITY IN MILES
HX     - HEAT INDEX IN FAHRENHEIT
WCI    - WIND CHILL INDEX IN FAHRENHEIT
N/A    - NOT AVAILABLE
AFB    - AIR FORCE BASE
         DAVIS-MONTHAN IS DAVIS-MONTHAN AIR FORCE BASE
CYN    - CANYON
MTNS   - MOUNTAINS
NCA    - NATIONAL CONSERVATION AREA
NR     - NEAR
VLY    - VALLEY
CONTL  - CONTINENTAL
PIMA CO DEQ - PIMA COUNTY DEPT OF ENVIRONMENTAL QUALITY



USA.gov is the U.S. government's official web portal to all federal, state and local government web resources and services.